Weather in Kamenka

Russia / Irkutsk Oblast     54°55′53″N   98°49′32″E
temp.,
°C
wind,
m/s
gust,
m/s
humid.,
%
clouds,
%
prec.,
mm/h
press.,
hPa
HPBL,
m
17 june, thu
thu1723:00+10sw21680 0.0 101511
02:00+8sw22690 0.0 101714
05:00+8sw22710 0.0 101716
08:00+15sse0151100 0.0 1015221
11:00+20nne1336100 0.0 10141836
14:00+23ene232720 0.0 10112457
17:00+24ene352516 0.0 10102990
20:00+20e254584 0.0 1009189
18 june, fri
fri1823:00+14ssw2258100 0.0 101019
02:00+13sw1154100 0.0 101012
05:00+13sw225790 0.0 100919
08:00+18wsw124959 0.0 1008221
11:00+19wsw355999 0.1 1008552
14:00+23wnw2340100 0.1 10061529
17:00+17wsw81071100 0.4 1007690
20:00+14wsw2192100 5.8 100637
19 june, sat
sat1923:00+12ssw119455 0.1 100713
02:00+11sw2295100 0.1 100635
05:00+12sw2294100 0.0 100435
08:00+13sw2497100 3.3 1005117
11:00+14sse2497100 6.3 1004268
14:00+15wsw258969 10.1 1003333
17:00+18wnw36858 3.7 1002834
20:00+16nnw23934 6.3 1003289
20 june, sun
sun2023:00+12wsw11960 0.7 100311
02:00+11sw11961 0.7 100310
05:00+10ssw11960 0.0 100410
08:00+15se12895 0.0 1004221
11:00+20e226220 0.0 10031117
14:00+24ene234460 0.1 10022000
17:00+22nne235497 0.0 1003316
20:00+21ene136512 0.0 1004262
21 june, mon
mon2123:00+16s1178100 0.0 100511
02:00+16wsw1178100 0.0 100611
05:00+15wnw1179100 0.0 100611
08:00+16n117999 0.0 100762
11:00+20nnw116322 0.3 1007507
14:00+25n223820 0.4 10052198
17:00+20ene2460100 0.0 1006114
20:00+19nw377170 0.1 1006354